Вернуться в каталог

FENGYUN 1C DEB

АктивенPO
NORAD 30515·DEBRIS·🇨🇳 China

Запущен May 10, 1999 с Taiyuan Satellite Launch Center

Loading…

Ближайшие Пролёты (ближайшие 24 часа)

TLE

СвежийSource: Space-Track

Эпоха: Sep 14, 2026, 13:01 UTC

1 30515U 99025AJD 26257.54257875  .00000781  00000-0  43853-3 0  9996
2 30515  98.4802 105.3276 0494945  62.9546 329.6212 13.64592088970915

Отслеживайте FENGYUN 1C DEB в реальном времени с AllMySat

Download on the App Store